Wind_Speed
10 12 13 14 14 15 16 16 18 21 24 25 26 27 28 28 27 29 31 33 35 35 36 43 38 39 45 44 41 41 43 43 40 32 34 31 33 32 24 24 23 26 28
12 13 13 13 14 15 17 19 20 22 22 23 24 26 27 27 28 29 29 30 33 32 34 39 34 38 43 43 47 43 41 38 42 41 34 32 33 35 34 33 30 21 20
13 12 13 14 15 16 18 20 21 22 23 24 26 29 30 32 31 30 34 39 37 38 40 37 36 41 40 39 43 45 49 44 38 35 30 26 27 30 34 32 31 30 28
13 13 14 15 16 18 19 20 21 23 24 26 28 30 33 31 31 32 34 35 34 36 36 36 41 40 40 39 41 43 47 48 40 40 37 34 37 33 33 34 32 26 25
13 13 15 16 18 19 20 20 23 24 25 27 29 30 30 32 30 34 35 35 37 38 37 37 41 38 41 44 37 38 39 43 45 42 33 32 33 29 32 29 33 29 25
13 14 16 17 18 19 21 24 25 28 29 28 28 29 33 30 33 35 35 39 40 39 41 38 39 41 43 49 50 41 42 38 42 41 39 36 34 30 31 30 31 28 28
13 15 17 17 19 20 22 25 28 28 30 29 31 30 33 32 31 31 37 38 39 40 41 41 39 38 36 39 48 43 35 47 42 38 44 37 29 28 28 28 29 32 32
14 15 15 17 20 22 23 24 26 29 27 31 36 35 31 30 30 34 38 38 37 36 38 39 39 37 36 35 34 38 37 33 45 45 41 39 42 41 36 32 31 34 35
14 16 16 19 20 22 23 25 27 27 31 34 32 27 27 29 30 33 33 33 33 34 33 32 34 37 35 32 34 40 41 46 39 43 47 44 40 42 38 33 34 33 31
15 17 18 19 20 22 24 25 26 26 32 27 27 27 29 32 28 26 24 25 29 30 30 32 33 34 34 36 39 39 40 47 31 31 35 37 36 39 36 38 36 30 29
18 18 17 18 19 20 22 23 25 28 23 25 28 31 33 30 31 30 28 28 32 36 36 37 34 29 29 33 35 40 45 42 31 17 21 25 29 33 35 33 33 32 32
17 15 14 14 18 20 20 23 20 20 24 25 26 30 35 34 28 30 30 33 33 38 42 39 39 36 36 30 22 31 33 34 28 22 25 31 33 33 28 29 30 36 27
15 13 13 14 17 18 18 18 22 20 22 24 26 34 46 43 37 37 36 30 28 30 33 36 36 36 29 25 22 20 27 31 30 29 34 33 33 29 26 27 30 30 26
16 13 13 15 17 17 17 17 19 16 24 29 31 33 48 43 41 40 37 27 27 29 33 32 30 26 24 15 19 25 29 35 36 36 36 32 27 28 26 25 27 23 24
17 15 15 14 16 18 16 18 17 18 24 28 27 32 44 35 37 29 26 25 19 18 24 22 13 15 16 18 17 22 26 29 30 30 28 28 29 26 23 22 24 29 32
22 20 17 15 18 18 20 22 14 14 19 18 22 30 32 19 22 20 19 21 28 37 31 33 20 3 7 14 15 17 18 21 21 16 26 24 24 24 28 24 28 27 31
19 24 19 16 18 18 21 23 27 20 16 15 22 25 23 14 18 17 23 18 19 20 27 33 31 25 27 25 24 21 20 15 16 29 27 25 26 32 37 37 39 35 34
16 21 22 24 23 18 20 22 23 21 26 23 21 24 26 17 18 18 18 14 19 17 31 27 24 23 34 31 24 17 17 24 24 23 26 24 25 27 35 32 32 32 27
15 19 18 20 24 24 22 20 24 24 22 23 21 21 27 26 16 15 22 29 30 32 21 23 24 21 23 32 25 24 24 23 18 17 18 14 15 18 21 24 23 17 19
15 20 18 17 17 21 23 28 26 27 31 31 24 26 26 29 28 25 24 25 26 36 34 25 19 18 20 20 17 12 13 6 4 10 13 13 13 11 15 17 18 21 20
15 16 18 17 17 19 21 22 28 24 29 32 33 25 23 27 28 28 26 19 20 23 30 30 25 17 17 17 15 9 12 15 11 9 10 13 15 13 13 17 19 24 24
17 17 17 18 17 19 19 19 21 24 23 26 31 30 26 23 25 26 25 23 22 17 18 23 25 25 24 33 20 11 12 9 13 15 15 16 14 13 10 9 14 15 23
17 18 17 18 18 19 19 20 21 21 22 23 25 31 31 29 27 25 25 24 24 19 16 15 18 15 20 24 19 17 16 15 10 8 9 13 16 16 15 13 13 16 15
18 18 18 18 19 19 20 20 21 22 22 22 23 24 30 30 29 28 25 24 21 19 19 17 14 11 12 14 14 12 14 13 11 8 10 14 13 13 14 14 14 15 13
17 18 18 19 19 20 20 21 21 22 22 23 23 23 24 26 27 28 28 26 24 20 19 17 14 12 5 7 5 5 8 8 11 10 11 10 9 9 9 10 11 14 14
16 17 17 18 20 20 20 21 21 22 22 22 23 23 23 23 25 26 30 29 27 22 21 18 15 12 12 9 4 1 5 10 11 9 9 9 5 6 7 9 8 9 11
Wind_Direction
325 319 315 311 308 306 305 305 304 301 301 300 299 296 292 287 284 280 275 271 267 266 265 259 259 259 257 252 253 250 251 252 258 261 258 263 271 270 268 262 267 264 251
319 315 313 311 309 309 308 307 306 302 299 297 293 289 287 287 281 277 280 276 270 272 272 264 265 266 265 260 250 247 249 247 247 255 252 252 261 261 267 265 258 250 249
315 313 309 307 309 308 307 305 304 301 298 298 299 302 302 297 290 285 278 273 274 273 269 265 270 263 267 264 258 251 246 249 250 253 253 250 259 267 262 258 254 251 238
310 307 305 308 309 311 308 306 305 307 308 304 303 299 295 291 288 286 284 280 281 283 276 274 268 261 260 264 266 260 252 246 247 248 249 252 258 256 257 254 251 249 241
305 304 306 307 310 309 307 309 308 308 305 304 301 299 297 294 290 287 284 283 281 280 276 279 269 267 260 254 259 259 257 249 243 243 241 237 244 251 253 253 252 248 237
305 305 307 308 308 307 307 307 308 309 307 306 302 301 296 295 290 292 282 289 283 281 281 276 275 268 269 263 253 258 256 257 243 235 242 243 246 249 256 259 250 240 241
303 302 307 306 307 307 306 310 308 310 307 304 304 301 299 296 295 295 290 290 287 281 281 276 275 266 265 268 261 256 257 255 247 240 237 235 239 246 247 249 250 243 240
300 300 306 308 306 305 306 311 308 311 310 306 306 308 303 298 299 294 292 292 289 282 279 275 273 266 265 267 262 253 256 251 244 237 237 238 239 245 251 262 266 255 251
301 300 305 305 305 307 311 311 313 313 306 313 314 313 305 301 295 294 294 287 283 283 280 273 269 270 266 258 263 255 258 248 248 239 234 240 247 246 248 257 261 247 231
307 301 303 305 304 307 313 313 317 310 315 319 321 315 305 302 303 309 309 294 283 284 282 280 275 273 271 265 264 252 255 245 250 216 225 236 245 247 247 242 250 233 224
315 310 304 307 311 313 317 315 311 317 322 331 324 317 317 317 306 311 310 296 292 289 288 288 287 286 283 286 279 249 243 239 250 247 240 245 246 248 247 241 236 244 211
322 315 315 320 320 317 318 321 328 326 325 324 333 347 344 332 310 304 300 294 292 285 285 286 286 280 280 281 273 248 230 228 236 241 257 253 254 249 232 230 232 227 218
332 329 329 333 324 327 323 330 329 336 334 325 330 336 340 340 328 319 301 293 285 286 284 287 286 286 282 262 250 242 213 222 238 251 258 259 249 233 227 220 226 230 242
340 333 334 335 333 336 324 325 327 337 345 341 331 331 338 338 353 345 325 301 281 290 297 296 285 268 267 256 234 220 217 227 240 247 249 253 234 229 232 222 218 214 208
351 343 341 344 341 337 331 327 323 330 342 336 344 337 339 350 3 6 25 43 33 11 348 348 308 260 251 233 212 217 221 228 232 245 243 233 234 222 215 209 205 191 180
1 356 352 348 346 345 335 340 337 340 335 333 344 340 343 13 30 45 50 45 42 30 25 32 46 21 203 204 206 216 232 219 206 189 207 207 213 211 202 199 199 189 169
350 1 4 360 351 351 350 347 343 349 345 355 348 349 6 14 17 9 21 15 45 42 27 31 34 70 89 112 120 131 129 146 130 148 151 154 158 153 163 155 161 170 161
2 354 6 18 9 359 356 1 0 353 352 352 355 357 10 34 27 34 16 30 35 55 34 40 50 58 68 84 100 107 114 108 105 107 107 112 115 127 123 129 132 139 155
359 360 2 351 6 14 15 8 11 13 5 358 357 5 11 27 25 36 39 43 36 32 28 52 53 69 85 74 74 82 94 107 104 105 103 105 116 123 125 127 134 150 167
7 357 11 4 4 359 3 13 13 17 20 16 10 3 10 19 31 33 30 37 41 36 37 28 34 49 63 65 73 82 97 109 70 110 129 140 144 158 159 158 165 176 193
10 6 10 7 9 3 7 3 7 11 6 14 16 15 24 9 20 24 27 26 29 31 40 32 38 42 36 59 66 79 104 98 113 112 113 132 151 171 188 194 192 199 188
15 12 13 11 12 8 13 9 8 7 10 2 7 19 21 17 16 18 22 21 27 21 25 29 40 35 37 30 37 90 74 82 116 97 124 121 114 102 121 147 163 165 171
17 16 17 15 14 13 15 13 11 12 12 7 5 9 18 19 16 13 12 9 18 19 19 24 39 42 38 47 46 67 85 91 79 116 116 125 132 133 137 146 147 152 155
16 19 16 18 12 17 15 14 11 12 14 10 7 7 7 9 10 14 10 5 5 4 9 15 32 38 35 49 68 73 83 86 89 78 87 155 127 130 131 129 128 131 137
17 17 15 16 14 13 12 12 12 8 11 7 7 8 7 4 2 3 7 8 5 357 358 356 1 1 7 9 12 97 143 125 115 106 86 66 99 107 114 128 129 142 135
17 15 15 12 13 11 9 7 7 5 9 4 4 5 5 3 359 0 0 3 2 1 355 348 341 327 329 323 318 258 188 189 165 157 133 114 136 126 124 128 134 143 154
Height
1472 1470 1470 1469 1467 1465 1462 1461 1459 1456 1453 1451 1447 1444 1443 1443 1440 1437 1433 1432 1431 1431 1430 1429 1426 1430 1429 1429 1432 1431 1430 1432 1428 1430 1433 1434 1433 1436 1436 1435 1435 1436 1436
1470 1468 1467 1466 1464 1461 1459 1457 1455 1453 1450 1447 1444 1441 1437 1432 1429 1426 1424 1424 1422 1420 1420 1418 1415 1418 1417 1416 1419 1418 1420 1421 1422 1421 1424 1426 1426 1429 1430 1429 1429 1432 1432
1466 1465 1464 1463 1460 1458 1456 1453 1451 1447 1444 1440 1435 1430 1425 1422 1419 1418 1417 1415 1412 1411 1409 1406 1405 1406 1404 1405 1406 1406 1410 1413 1413 1413 1414 1417 1419 1421 1423 1423 1422 1423 1427
1463 1461 1460 1458 1456 1453 1450 1448 1444 1440 1435 1432 1429 1425 1422 1418 1415 1413 1410 1406 1403 1400 1399 1397 1396 1395 1393 1394 1395 1395 1399 1400 1403 1404 1406 1409 1412 1413 1416 1415 1415 1417 1419
1460 1458 1457 1455 1452 1450 1447 1443 1439 1436 1432 1428 1423 1419 1415 1411 1408 1405 1402 1399 1394 1391 1389 1387 1385 1383 1382 1381 1382 1382 1386 1388 1392 1395 1396 1400 1404 1405 1407 1408 1407 1411 1412
1456 1455 1453 1451 1448 1446 1443 1439 1434 1429 1425 1420 1416 1412 1407 1403 1400 1397 1394 1390 1385 1381 1378 1376 1374 1372 1370 1369 1371 1372 1374 1375 1380 1384 1388 1390 1393 1396 1400 1400 1401 1404 1407
1453 1452 1450 1448 1445 1442 1438 1433 1428 1424 1419 1414 1409 1405 1399 1395 1391 1388 1386 1381 1376 1372 1368 1365 1363 1360 1360 1358 1357 1361 1363 1364 1367 1374 1377 1380 1385 1390 1392 1393 1393 1397 1398
1450 1448 1446 1444 1441 1437 1433 1428 1423 1418 1413 1408 1402 1396 1391 1387 1384 1381 1377 1371 1366 1361 1359 1355 1352 1351 1351 1351 1351 1351 1353 1354 1359 1363 1367 1372 1377 1381 1383 1386 1388 1390 1393
1446 1444 1442 1439 1435 1431 1426 1421 1417 1412 1407 1401 1395 1390 1386 1382 1378 1372 1368 1361 1355 1351 1348 1347 1344 1341 1340 1343 1342 1341 1343 1344 1349 1353 1359 1364 1368 1371 1377 1381 1382 1384 1384
1440 1437 1436 1433 1430 1425 1421 1417 1411 1408 1402 1396 1391 1387 1383 1376 1370 1365 1361 1355 1348 1343 1340 1336 1334 1331 1331 1332 1332 1333 1332 1333 1339 1340 1349 1355 1359 1361 1366 1371 1375 1372 1380
1435 1432 1430 1427 1425 1421 1417 1413 1409 1403 1398 1394 1389 1385 1379 1372 1365 1360 1354 1348 1341 1334 1330 1326 1323 1321 1320 1319 1317 1319 1322 1329 1329 1332 1340 1345 1349 1352 1356 1360 1366 1370 1374
1431 1428 1425 1423 1421 1417 1413 1409 1404 1401 1397 1392 1387 1380 1373 1366 1358 1351 1345 1339 1333 1326 1321 1317 1314 1313 1312 1310 1308 1308 1315 1322 1327 1329 1334 1338 1340 1343 1347 1354 1359 1364 1370
1428 1425 1422 1420 1418 1414 1411 1407 1403 1399 1395 1390 1384 1377 1368 1358 1349 1340 1332 1327 1322 1318 1314 1310 1305 1303 1301 1300 1302 1303 1309 1316 1321 1325 1327 1329 1331 1334 1339 1346 1352 1358 1363
1426 1422 1419 1417 1414 1412 1409 1406 1402 1398 1393 1388 1382 1376 1365 1354 1341 1329 1316 1311 1312 1311 1305 1296 1290 1290 1292 1292 1295 1299 1304 1309 1314 1317 1320 1321 1325 1327 1331 1336 1345 1352 1357
1424 1420 1418 1415 1413 1410 1409 1405 1401 1398 1395 1388 1382 1376 1364 1352 1341 1330 1320 1314 1313 1308 1296 1289 1279 1280 1283 1288 1292 1296 1300 1305 1307 1311 1314 1316 1318 1322 1326 1331 1338 1344 1350
1424 1420 1417 1414 1412 1409 1404 1399 1399 1396 1393 1389 1384 1376 1365 1355 1347 1337 1331 1325 1320 1313 1303 1292 1282 1280 1282 1286 1290 1294 1297 1298 1301 1301 1307 1311 1315 1318 1323 1330 1336 1342 1349
1427 1422 1417 1414 1411 1408 1404 1399 1392 1390 1388 1386 1382 1375 1365 1358 1351 1344 1334 1329 1324 1320 1312 1303 1297 1288 1287 1287 1290 1292 1295 1297 1295 1295 1303 1309 1312 1317 1320 1326 1333 1341 1351
1430 1425 1419 1416 1412 1408 1405 1400 1395 1390 1384 1382 1380 1374 1367 1358 1353 1347 1340 1334 1326 1324 1322 1315 1311 1307 1301 1299 1301 1301 1303 1306 1306 1304 1311 1316 1318 1320 1321 1330 1335 1343 1353
1433 1428 1423 1418 1414 1411 1406 1402 1397 1391 1387 1383 1379 1373 1365 1360 1355 1350 1344 1338 1334 1329 1328 1322 1323 1320 1319 1317 1315 1314 1315 1317 1318 1320 1320 1323 1326 1329 1333 1337 1342 1349 1355
1434 1430 1426 1424 1420 1416 1410 1405 1399 1394 1390 1385 1380 1376 1369 1363 1356 1351 1347 1345 1340 1338 1336 1331 1327 1329 1328 1325 1326 1326 1326 1326 1327 1327 1328 1329 1333 1336 1340 1344 1348 1354 1359
1435 1432 1428 1425 1422 1419 1415 1410 1404 1399 1394 1390 1385 1380 1375 1370 1365 1360 1355 1351 1347 1346 1344 1342 1336 1333 1335 1336 1335 1334 1332 1333 1333 1333 1335 1335 1338 1341 1344 1347 1351 1355 1359
1436 1433 1430 1427 1424 1421 1417 1415 1410 1405 1401 1396 1389 1383 1378 1374 1369 1366 1362 1358 1354 1351 1348 1349 1344 1339 1335 1332 1333 1336 1337 1335 1336 1338 1340 1340 1343 1346 1348 1351 1356 1358 1360
1438 1436 1432 1429 1426 1423 1419 1416 1413 1409 1406 1402 1395 1387 1382 1378 1374 1370 1367 1363 1359 1357 1353 1350 1351 1348 1345 1343 1341 1341 1341 1340 1339 1344 1345 1345 1349 1352 1354 1356 1358 1361 1364
1441 1437 1434 1430 1427 1424 1421 1418 1416 1412 1409 1405 1401 1395 1388 1384 1379 1375 1371 1367 1363 1360 1357 1354 1354 1351 1348 1347 1348 1348 1347 1347 1347 1345 1346 1345 1351 1354 1357 1359 1362 1364 1368
1443 1439 1436 1432 1429 1425 1422 1420 1417 1414 1411 1408 1404 1400 1394 1389 1385 1380 1375 1371 1366 1362 1360 1358 1356 1356 1354 1353 1352 1351 1353 1353 1353 1353 1351 1353 1357 1360 1361 1362 1365 1368 1371
1447 1443 1439 1435 1430 1427 1424 1420 1418 1415 1413 1410 1407 1402 1398 1394 1389 1383 1378 1373 1370 1366 1363 1360 1359 1357 1356 1355 1355 1355 1356 1356 1356 1357 1359 1360 1364 1365 1366 1368 1369 1371 1373